Simultaneous Nadir Overpasses (SNOs) Predictions

Prediction of SNOs between AQUA and METOP-B Satellite Orbit:

Table of predicted SNOs for the next 14.0 days since TLE Epoch: 9/21/2018
Index Date (AQUA) Time (AQUA) Lat,Lon (AQUA) SZA (AQUA ) Date (METOP-B) Time (METOP-B) Lat,Lon (METOP-B) SZA (METOP-B ) Distance(km) Time Diff (sec)
1 09/23/2018 02:32:20 -73.95, -44.08 106.08 09/23/2018 02:31:27 -73.97, -43.97 106.07 3.47 53
2 09/23/2018 03:21:49 74.00, 123.45 73.99 09/23/2018 03:22:06 73.98, 123.39 73.96 3.22 17
3 09/23/2018 04:11:28 -74.72, -70.62 105.24 09/23/2018 04:12:33 -74.73, -67.35 105.31 95.74 65
4 09/25/2018 22:06:31 -73.97, 22.33 104.97 09/25/2018 22:05:49 -73.96, 22.40 104.99 2.94 42
5 09/25/2018 22:56:00 74.03,-170.16 75.10 09/25/2018 22:56:27 74.01,-170.12 75.09 2.07 27
6 09/28/2018 17:40:42 -73.94, 88.85 103.91 09/28/2018 17:40:12 -73.94, 88.78 103.91 2.07 30
7 09/28/2018 18:30:11 74.01,-103.66 76.17 09/28/2018 18:30:50 74.00,-103.75 76.16 2.82 39
8 10/01/2018 13:14:54 -73.97, 155.23 102.79 10/01/2018 13:14:34 -73.98, 155.27 102.79 1.29 20
9 10/01/2018 14:04:23 74.04, -37.29 77.30 10/01/2018 14:05:12 74.03, -37.26 77.29 1.46 49
10 10/04/2018 07:59:33 73.61, 54.83 77.91 10/04/2018 07:58:23 73.54, 53.32 77.87 48.22 70
11 10/04/2018 08:49:04 -73.95,-138.27 101.73 10/04/2018 08:48:56 -73.96,-138.36 101.72 2.96 8
12 10/04/2018 09:38:33 74.03, 29.19 78.37 10/04/2018 09:39:34 74.02, 29.11 78.35 2.86 61




NCC Satellite Simultaneous Nadir Overpasses (SNOs) Prediction Service
